Oceana NAS, VA

6:39 PM EST on December 17, 2017 (GMT -0500)
Oceana Naval Air Station

Weather History for KNTU - October, 2012

Change the Weather History Date:

Wednesday, October 31, 2012

  Actual Average Record
Temperature  
Mean Temperature 48 °F -  
Max Temperature 59 °F 63 °F 81 °F (2004)
Min Temperature 42 °F 45 °F 33 °F (2008)
Degree Days  
Heating Degree Days 16    
Moisture  
Dew Point 37 °F    
Average Humidity 66    
Maximum Humidity 76    
Minimum Humidity 49    
Precipitation  
Precipitation 0.00 in - - ()
Sea Level Pressure  
Sea Level Pressure 29.64 in    
Wind  
Wind Speed 10 mph (SW)    
Max Wind Speed 17 mph    
Max Gust Speed 23 mph    
Visibility 10 miles    
Events      
Averages and records for this station are not official NWS values.
T = Trace of Precipitation, MM = Missing Value Source: NWS Daily Summary

Daily Weather History Graph

Daily Weather History Graph

Search for Another Location

Airport or City:

Trip Planner

Search our weather history database for the weather conditions in past years. The results will help you decide how hot, cold, wet, or windy it might be!

Date:

Astronomy

Oct. 31, 2012 Rise Set
Actual Time 7:27 AM EDT 6:07 PM EDT
Civil Twilight 7:00 AM EDT 6:34 PM EDT
Nautical Twilight 6:29 AM EDT 7:04 PM EDT
Astronomical Twilight 5:59 AM EDT 7:35 PM EDT
Moon 7:20 PM EDT (10/31) 9:03 AM EDT (10/31)
Length of Visible Light 11h 33m
Length of Day
10h 40m
Full, 97% of the Moon is Illuminated
Oct 31
Full
Nov 6
Last Quarter
Nov 13
New
Nov 20
First Quarter
Nov 28
Full

Hourly Weather History & Observations

Time (EDT) Temp. Windchill Dew Point Humidity Pressure Visibility Wind Dir Wind Speed Gust Speed Precip Events Conditions
12:56 AM 45.0 °F 40.1 °F 36.0 °F 71% 29.55 in 10.0 mi SW 9.2 mph - N/A   Mostly Cloudy
1:56 AM 44.1 °F 39.5 °F 36.0 °F 73% 29.57 in 10.0 mi SSW 8.1 mph - N/A   Scattered Clouds
2:56 AM 44.1 °F 38.1 °F 37.0 °F 76% 29.58 in 10.0 mi SSW 11.5 mph - N/A   Scattered Clouds
3:56 AM 44.1 °F 39.0 °F 36.0 °F 73% 29.59 in 10.0 mi SSW 9.2 mph - N/A   Scattered Clouds
4:56 AM 44.1 °F 38.6 °F 36.0 °F 73% 29.59 in 10.0 mi SSW 10.4 mph - N/A   Partly Cloudy
5:56 AM 43.0 °F 37.2 °F 36.0 °F 76% 29.61 in 10.0 mi SW 10.4 mph - N/A   Partly Cloudy
6:56 AM 43.0 °F 36.8 °F 35.1 °F 74% 29.62 in 10.0 mi SW 11.5 mph - N/A   Scattered Clouds
7:56 AM 42.1 °F 35.2 °F 35.1 °F 76% 29.65 in 10.0 mi SW 12.7 mph - N/A   Scattered Clouds
8:56 AM 44.1 °F 37.7 °F 35.1 °F 71% 29.65 in 10.0 mi WSW 12.7 mph 21.9 mph N/A   Scattered Clouds
9:56 AM 46.9 °F - 36.0 °F 66% 29.65 in 10.0 mi WSW 9.2 mph - N/A   Scattered Clouds
10:56 AM 50.0 °F - 36.0 °F 59% 29.65 in 10.0 mi WSW 16.1 mph - N/A   Scattered Clouds
11:56 AM 52.0 °F - 36.0 °F 54% 29.63 in 10.0 mi WSW 8.1 mph - N/A   Scattered Clouds
12:56 PM 55.0 °F - 37.9 °F 53% 29.62 in 10.0 mi WSW 17.3 mph 21.9 mph N/A   Scattered Clouds
1:56 PM 55.0 °F - 36.0 °F 49% 29.61 in 10.0 mi WSW 16.1 mph 23.0 mph N/A   Mostly Cloudy
2:56 PM 55.0 °F - 37.0 °F 51% 29.61 in 10.0 mi West 8.1 mph - N/A   Mostly Cloudy
3:56 PM 54.0 °F - 37.0 °F 53% 29.62 in 10.0 mi West 12.7 mph - N/A   Mostly Cloudy
4:56 PM 53.1 °F - 37.0 °F 55% 29.63 in 10.0 mi West 12.7 mph - N/A   Overcast
5:56 PM 52.0 °F - 37.0 °F 57% 29.65 in 10.0 mi West 12.7 mph - N/A   Mostly Cloudy
6:56 PM 50.0 °F - 37.9 °F 63% 29.67 in 10.0 mi WSW 9.2 mph - N/A   Overcast
7:56 PM 50.0 °F - 39.0 °F 66% 29.68 in 10.0 mi SW 6.9 mph - N/A   Overcast
8:56 PM 50.0 °F - 39.0 °F 66% 29.69 in 10.0 mi SW 8.1 mph - N/A   Overcast
9:56 PM 48.9 °F - 39.9 °F 71% 29.71 in 10.0 mi SW 8.1 mph - N/A   Overcast
10:56 PM 46.9 °F - 39.0 °F 74% 29.71 in 10.0 mi SW 6.9 mph - N/A   Mostly Cloudy
11:56 PM 45.0 °F 41.2 °F 37.9 °F 76% 29.71 in 10.0 mi WSW 6.9 mph - N/A   Partly Cloudy